Regional Weather Roundup
Issued by NWS Bismarck, ND

Home | Current Version | Previous Version | Text Only | Print | Product List | Glossary On
Versions: 1 2 3 4 5 6 7 8 9 10 11 12 13 14 15 16 17 18 19 20 21 22 23 24 25 26 27 28 29 30 31 32 33 34 35 36 37 38 39 40 41 42 43 44 45 46 47 48 49 50
000
ASUS43 KBIS 020410
RWRBIS

NWR BROADCAST TEXT
NATIONAL WEATHER SERVICE BISMARCK ND
1100 PM CDT WED JUL 01 2015

NOTE: "FAIR" INDICATES FEW OR NO CLOUDS BELOW 12,000 FEET WITH NO
SIGNIFICANT WEATHER AND/OR OBSTRUCTIONS TO VISIBILITY.


CITY           SKY/WX    TMP DP  RH WIND       PRES   REMARKS
WILLISTON      CLOUDY    71  59  65 NW8       30.00R HAZE
MINOT          CLOUDY    68  64  87 CALM      29.96R
MINOT AFB      MOCLDY    66  66 100 CALM      29.95S
BISMARCK       MOCLDY    69  65  86 N3        29.97R
DICKINSON      LGT RAIN  66  62  87 W5        30.00R FOG
GARRISON         N/A     69  66  90 CALM      29.96R
HETTINGER ARPT CLOUDY    65  61  87 CALM      30.01F
JAMESTOWN      PTCLDY    67  62  84 SE8       29.96R
BEACH          LGT RAIN  55  55 100 S6        30.04S
CROSBY         FAIR      64  64 100 SW3       29.99R FOG
HARVEY         FAIR      68  68 100 CALM      29.96R
HAZEN          MOCLDY    64  63  94 SE3       29.97S
LINTON         FAIR      68  68 100 SE8       29.96F
MANDAN         FAIR      68  64  88 S6        29.99R
OAKES            N/A     61  61 100 SE7       29.98R
STANLEY        CLOUDY    64  64 100 CALM      30.00R FOG
$$

CITY           SKY/WX    TMP DP  RH WIND       PRES   REMARKS
GRAND FORKS    PTCLDY    66  62  87 S7        29.95R
GRAND FORKS AF PTCLDY    65  62  89 S6        29.95S
DEVILS LAKE    PTCLDY    70  61  73 S8        29.94R
FARGO          FAIR      65  56  72 S8        29.98R
CANDO          FAIR      64  59  82 SE5       29.95R
CAVALIER       FAIR      68  61  77 SW3       29.93S
GRAFTON        FAIR      64  64 100 S8        29.95R
GWINNER          N/A     64  64 100 SE6       29.98S
LANGDON        FAIR      61  59  94 S5        29.96S
ROLLA          CLOUDY    63  63 100 W5        29.97R
WALHALLA       FAIR      64  64 100 MISG      29.94R
$$

CITY           SKY/WX    TMP DP  RH WIND       PRES   REMARKS
ABERDEEN       PTCLDY    66  61  84 SE7       29.97R
MOBRIDGE       MOCLDY    72  68  87 E9        29.95R
BUFFALO          N/A     67  64  90 SE9       29.96F
RAPID CITY     PTCLDY    68  64  87 E8        30.02R
GLASGOW        PTCLDY    65  51  60 E3        30.04R
SIDNEY         MOCLDY    66  57  72 W9        30.03R
WOLF POINT     MOCLDY    64  59  83 CALM      30.02R
GLENDIVE       PTCLDY    61  55  82 CALM      30.04R
MILES CITY     MOCLDY    69  59  70 NE6       30.03R
BAKER          MOCLDY    66  63  90 CALM      30.04S
$$

CITY           SKY/WX    TMP DP  RH WIND       PRES   REMARKS
BILLINGS       PTCLDY    71  54  54 NE7       30.12R
GREAT FALLS    PTCLDY    71  52  50 N9        30.15R
REGINA         MOCLDY    66  63  88 N3        29.98R
ESTEVAN        CLOUDY    64  63  94 S2        29.97R SMOKE
$$



USA.gov is the U.S. government's official web portal to all federal, state and local government web resources and services.